www.pogodaiklimat.ru

Погода и климат >> Архив погоды >> Мексика >> Hermosillo la Magna


ПОГОДА в Hermosillo la Magna

  • Прогноз погоды в Hermosillo la Magna
  • Монитор погоды в Hermosillo la Magna
  • Климат города

АРХИВ ПОГОДЫ в Hermosillo la Magna

Время (UTC), дата Ветер
(напр.,м/с)
 
Видим.   Явления Облачность Т
(С)
Тd
(С)
f
(%)
Тe
(С)
Тes
(С)
Комфортность P
(гПа)
Po
(гПа)
Тmin
(С)
Tmax
(С)
R
(мм)
R24
(мм)
S
(см)
18 18.05 ЮЗ 3 н/о н/о +29.7 +5.3 21 +28 +28 жарко 1009.5 985.5 +14.9 +29.7
21 18.05 н/о н/о
00 19.05 н/о н/о
03 19.05 З 3 н/о н/о +26.2 +7.0 29 +26 +26 жарко 1007.8 983.9
06 19.05 З 2 н/о н/о +23.0 +9.5 42 +25 +25 комфорт 1009.5 985.0 +14.9 +32.6
09 19.05 СЗ 1 н/о н/о +19.2 +10.6 57 +21 +21 комфорт 1009.4 984.6
12 19.05 В 1 н/о н/о +17.0 +9.8 63 +18 +18 1009.1 984.2 +16.8 +32.6
15 19.05 В 1 н/о н/о +24.2 +10.0 41 +25 +25 комфорт 1009.8 985.7
18 19.05 З 2 н/о н/о +30.6 +9.1 26 +30 +30 жарко 1009.2 985.4 +16.2 +31.1
21 19.05 З 3 н/о н/о +34.8 +6.4 17 +33 +33 жарко 1007.0 983.8
00 20.05 З 3 н/о н/о +35.9 +1.8 12 +33 +33 жарко 1005.2 981.9 +16.2 +36.8
03 20.05 н/о н/о +30.7 +23 +23 комфорт 1006.7 983.1
06 20.05 З 2 н/о н/о +24.2 +1.4 22 +23 +23 комфорт 1008.7 984.7 +16.2 +36.8
09 20.05 З 2 н/о н/о +21.6 +2.4 28 +21 +21 комфорт 1008.6 984.1
12 20.05 СВ 1 н/о н/о +21.8 -0.2 23 +21 +21 комфорт 1008.1 983.5 +16.7 +36.8
15 20.05 СВ 3 н/о н/о +25.9 -1.7 16 +24 +24 комфорт 1008.4 984.5
18 20.05 Ю 1 н/о н/о +35.2 -4.3 8 +31 +31 жарко 1007.3 983.8 +16.3 +35.5
21 20.05 ЮЗ 3 н/о н/о +38.1 -0.7 9 +34 +34 очень
жарко
1005.4 982.2
00 21.05 СЗ 3 н/о н/о +38.4 -2.5 7 +34 +34 очень
жарко
1003.8 980.6 +16.3 +39.9
03 21.05 З 4 н/о н/о +31.1 -1.9 12 +28 +28 жарко 1005.8 982.1
06 21.05 З 1 н/о н/о +26.3 -2.9 14 +24 +24 комфорт 1008.0 983.8 +16.3 +39.9
09 21.05 СВ 2 н/о н/о +23.0 -1.8 19 +22 +22 комфорт 1008.2 984.1
12 21.05 В 2 н/о н/о +18.0 -0.6 28 +19 +19 1009.7 984.9 +18.0 +39.9
15 21.05 В 2 н/о н/о +25.5 +0.5 19 +24 +24 комфорт 1011.3 987.3
18 21.05 н/о н/о +33.1 +15 +16 1010.4 987.1
21 21.05 З 3 н/о н/о +37.9 -0.3 9 +34 +34 очень
жарко
1008.5 985.5
00 22.05 З 4 н/о н/о +37.3 -1.3 9 +33 +33 жарко 1007.1 983.8 +17.5 +39.8
03 22.05 З 4 н/о н/о +31.4 -1.1 12 +28 +28 жарко 1008.8 985.1
06 22.05 З 2 н/о н/о +26.8 +1.1 19 +25 +25 комфорт 1010.8 986.6 +17.5 +39.8
09 22.05 ЮЗ 1 н/о н/о +23.1 +6.6 34 +24 +24 комфорт 1010.7 986.2
12 22.05 В 2 н/о н/о +22.4 +1.3 25 +22 +22 комфорт 1010.7 986.2 +19.2 +39.8
15 22.05 В 2 н/о н/о +26.3 +2.1 21 +25 +25 комфорт 1011.2 986.9
18 22.05 З 2 н/о н/о +36.2 -0.6 10 +32 +32 жарко 1010.0 986.8 +18.7 +36.6
21 22.05 З 3 н/о н/о +40.7 -1.6 7 +37 +37 очень
жарко
1007.6 984.8
00 23.05 З 4 н/о н/о +41.1 -0.6 7 +37 +37 очень
жарко
1005.8 982.8 +18.7 +42.6
03 23.05 З 5 н/о н/о +33.3 +0.2 12 +30 +30 жарко 1007.6 984.3
06 23.05 З 1 н/о н/о +27.7 +4.5 23 +26 +26 жарко 1009.8 985.7 +18.7 +42.6
09 23.05 н/о н/о +22.7 +10.0 44 +15 +15 1010.4 985.9
12 23.05 СВ 2 н/о н/о +21.8 +11.8 53 +24 +24 комфорт 1010.5 985.9 +21.8 +42.6
15 23.05 В 2 н/о н/о +28.5 +5.0 22 +27 +27 жарко 1011.1 987.0
18 23.05 н/о н/о
21 23.05 З 2 н/о н/о +41.7 +0.5 8 +38 +38 очень
жарко
1007.0 984.3
00 24.05 н/о н/о
03 24.05 З 4 н/о н/о +34.6 +3.6 14 +32 +32 жарко 1006.1 982.9
06 24.05 З 3 н/о н/о +29.0 +4.0 20 +27 +27 жарко 1007.8 984.1 +20.4 +43.2
09 24.05 В 1 н/о н/о +24.0 +5.2 30 +24 +24 комфорт 1007.8 983.8
12 24.05 СВ 3 н/о н/о +21.7 +3.9 31 +22 +22 комфорт 1007.7 983.2 +21.7 +43.2
15 24.05 В 2 н/о н/о +28.6 +6.9 25 +28 +28 жарко 1008.3 984.6
18 24.05 З 2 н/о н/о +38.3 +6.6 14 +36 +36 очень
жарко
1007.0 1146.8 +19.8 +38.3
21 24.05 З 4 н/о н/о +41.1 +3.8 10 +38 +38 очень
жарко
1004.8 982.1
00 25.05 ЮЗ 5 н/о н/о +40.7 -2.9 6 1003.2 5.0 +19.8 +41.9
03 25.05 н/о н/о
12 25.05 В 2 н/о н/о +12.2 -4 -4 1006.7 982.6 +22.5 +41.9

 

Местоположение метеостанции Hermosillo la Magna (Мексика): широта 29.08 долгота -110.95 высота над уровнем моря 210 м.

В архиве по умолчанию представлена погода в Hermosillo la Magna за последнюю неделю. Архивные данные за месяц целиком и за предыдущие месяцы, начиная с января 2011 года, Вы можете получить, выбрав интересующий диапазон дат из раскрывающегося списка и нажав кнопку "Ввод!".

Внимание! Время в таблицах - всемирное. Для получения местного времени необходимо прибавить поправку, которая в Hermosillo la Magna равна -7 ч.

Смотрите также архив погоды в соседних городах и на ближайших метеорологических станциях:

Погода в Hermosillo (Мексика) (10 км)
Погода в Empalme (Мексика) (128 км)
Погода в Guaymas Upper Air Site (Мексика) (129 км)
Погода в Pilares de Nacoz (Мексика) (189 км)
Погода в Altar Son (Мексика) (201 км)
Погода в Ciudad Obregon (Мексика) (218 км)
Погода в Santa Rosalia (Мексика) (237 км)
Погода в Temosachic (Мексика) (307 км)
Погода в Nueva Casas Grandes (Мексика) (328 км)
Погода в Loreto (Мексика) (342 км)

Пояснения к столбцам:

Ветер - указаны скорость ветра в м/с - средняя за 10 мин, порывы в срок и между сроками (в фигурных скобках) и направление, откуда дует ветер: С - северный, СВ - северо-восточный, В - восточный, ЮВ - юго-восточный, Ю - южный, ЮЗ - юго-западный, З - западный, СЗ - северо-западный.
Видимость - горизонтальная дальность видимости в метрах или километрах. При видимости от 1 до 10 км при отсутствии осадков обычно наблюдается дымка, при ухудшении видимости до 1 км и менее - туман. В сухую погоду видимость может ухудшаться дымом, пылью или мглою.
Явления - указаны атмосферные явления, наблюдавшиеся в срок или в последний час перед сроком; фигурными скобками обозначены явления, наблюдавшиеся между сроками (за 1-3 часа до срока); квадратными скобками обозначены град или гололедные отложения с указанием их диаметра в мм.
Облачность - указаны через наклонную черту общая и нижняя облачность в баллах и высота нижней границы облаков в метрах; квадратными скобками обозначены формы облаков: Ci - перистые, Cs - перисто-слоистые, Cc - перисто-кучевые, Ac - высококучевые, As - высокослоистые, Sc - слоисто-кучевые, Ns - слоисто-дождевые, Cu - кучевые, Cb - кучево-дождевые. Подробнее классификацию облаков см. в Атласе облаков (PDF).
T - Температура воздуха - температура, измеренная на высоте 2 м над землей.
Td - Температура точки росы - температура, при понижении до которой содержащийся в воздухе водяной пар достигнет насыщения.
f - Относительная влажность воздуха - влажноcть воздуха, измеренная на высоте 2 м над землей.
Te - Эффективная температура - температура, которую ощущает одетый по сезону человек в тени. Характеристика душности погоды. При расчете учитывается влияние влажности воздуха и скорости ветра на теплоощущения человека.
Tes - Эффективная температура на солнце - температура, которую ощущает человек, с поправкой на солнечный нагрев. Характеристика знойности погоды. Зависит от высоты солнца над горизонтом, облачности и скорости ветра. Ночью, в пасмурную погоду, а также при ветре 12 м/с и более поправка равна нулю.
P - Атмосферное давление - приведенное к уровню моря атмосферное давление.
Po - Атмосферное давление - измеренное на уровне метеостанции атмосферное давление.
Tmin - Минимальная температура - минимум температуры воздуха на высоте 2 м над землей.
Tmax - Максимальная температура - максимум температуры воздуха на высоте 2 м над землей.
R - Количество осадков - Количество выпавших осадков за период времени, мм. При наведении курсора мыши на число - период времени, за который выпало указанное количество осадков.
R24 - Количество осадков - Количество выпавших осадков за 24 часа, мм.
S - Снежный покров - Высота снежного покрова, см. При наведении курсора мыши на число - состояние снежного покрова и степень покрытия местности в баллах.